Location: Follega
(52.8850°N, 5.7362°E)
Time: 13:12:18
(UTC+00:00)

CARTOSAT-1 - Pass Details

Date: 01 June 2020
Orbit: 616 x 619 km, 97.8° (Epoch: 11 July)

Event Time Altitude Azimuth Distance (km) Brightness Sun altitude
Exits shadow 20:47:49 - 156° (SSE) 2,192 5.7 -6.6°
Reaches altitude 10° 20:48:19 10° 155° (SSE) 1,983 5.5 -6.7°
Maximum altitude 20:52:37 71° 73° (ENE) 661 3.7 -7.1°
Drops below altitude 10° 20:56:56 10° 349° (N) 1,997 7.4 -7.4°
Sets 20:59:09 0° 348° (NNW) 2,908 8.4 -7.6°
